When you browse on this site, cookies collect data to enhance your experience and personalize the content and advertising you see.
Visit our Privacy Policy to learn more. By continuing to use the site, you agree to this use of cookies and data.
EN

Hourly Weather Zaafrana

Today, 7 July, Tuesday

Time Temperature Precipitation Wind Pressure Humidity
00:00 +27°C° 0 mm 3 mps 738 mmHg 39%
01:00 +26°C° 0 mm 2 mps 738 mmHg 42%
02:00 +25°C° 0 mm 1 mps 738 mmHg 46%
03:00 +25°C° 0 mm 1 mps 738 mmHg 46%
04:00 +24°C° 0 mm 1 mps 738 mmHg 46%
05:00 +24°C° 0 mm 1 mps 738 mmHg 47%
06:00 +27°C° 0 mm 1 mps 738 mmHg 39%
07:00 +30°C° 0 mm 1 mps 739 mmHg 31%
08:00 +33°C° 0 mm 1 mps 739 mmHg 23%
09:00 +36°C° 0 mm 2 mps 739 mmHg 21%
10:00 +37°C° 0 mm 2 mps 739 mmHg 18%
11:00 +38°C° 0 mm 2 mps 739 mmHg 15%
12:00 +39°C° 0 mm 3 mps 739 mmHg 14%
13:00 +40°C° 0 mm 3 mps 738 mmHg 13%
14:00 +41°C° 0 mm 4 mps 738 mmHg 12%
15:00 +40°C° 0 mm 3 mps 738 mmHg 12%
16:00 +40°C° 0 mm 3 mps 738 mmHg 12%
17:00 +40°C° 0 mm 3 mps 737 mmHg 13%
18:00 +37°C° 0 mm 2 mps 738 mmHg 16%
19:00 +34°C° 0 mm 2 mps 738 mmHg 18%
20:00 +30°C° 0 mm 1 mps 738 mmHg 21%
21:00 +30°C° 0 mm 2 mps 739 mmHg 24%
22:00 +29°C° 0 mm 2 mps 739 mmHg 27%
23:00 +28°C° 0 mm 3 mps 739 mmHg 30%

Tomorrow, 8 July, Wednesday

Time Temperature Precipitation Wind Pressure Humidity
00:00 +28°C° 0 mm 3 mps 739 mmHg 35%
01:00 +27°C° 0 mm 3 mps 739 mmHg 39%
02:00 +26°C° 0 mm 3 mps 739 mmHg 43%
03:00 +26°C° 0 mm 2 mps 739 mmHg 44%
04:00 +25°C° 0 mm 2 mps 740 mmHg 45%
05:00 +25°C° 0 mm 2 mps 740 mmHg 46%
06:00 +27°C° 0 mm 3 mps 740 mmHg 39%
07:00 +30°C° 0 mm 3 mps 740 mmHg 32%
08:00 +34°C° 0 mm 4 mps 740 mmHg 26%
09:00 +35°C° 0 mm 4 mps 740 mmHg 24%
10:00 +36°C° 0 mm 4 mps 740 mmHg 21%
11:00 +39°C° 0 mm 5 mps 740 mmHg 19%
12:00 +40°C° 0 mm 5 mps 740 mmHg 18%
13:00 +40°C° 0 mm 5 mps 740 mmHg 17%
14:00 +41°C° 0 mm 6 mps 739 mmHg 17%
15:00 +41°C° 0 mm 6 mps 739 mmHg 17%
16:00 +41°C° 0 mm 6 mps 739 mmHg 18%
17:00 +40°C° 0 mm 6 mps 739 mmHg 18%
18:00 +38°C° 0 mm 6 mps 739 mmHg 30%
19:00 +34°C° 0 mm 6 mps 740 mmHg 42%
20:00 +30°C° 0 mm 6 mps 740 mmHg 54%
21:00 +29°C° 0 mm 5 mps 741 mmHg 61%
22:00 +28°C° 0 mm 4 mps 741 mmHg 68%
23:00 +27°C° 0 mm 3 mps 741 mmHg 75%

Day after tomorrow, 9 July, Thursday

Time Temperature Precipitation Wind Pressure Humidity
00:00 +26°C° 0 mm 3 mps 741 mmHg 75%
01:00 +26°C° 0 mm 2 mps 741 mmHg 75%
02:00 +26°C° 0 mm 2 mps 741 mmHg 75%
03:00 +25°C° 0 mm 2 mps 741 mmHg 74%
04:00 +25°C° 0 mm 2 mps 740 mmHg 73%
05:00 +25°C° 0 mm 1 mps 740 mmHg 72%
06:00 +27°C° 0 mm 2 mps 741 mmHg 63%
07:00 +28°C° 0 mm 2 mps 741 mmHg 53%
08:00 +30°C° 0 mm 2 mps 741 mmHg 44%
09:00 +32°C° 0 mm 2 mps 741 mmHg 38%
10:00 +34°C° 0 mm 3 mps 741 mmHg 32%
11:00 +36°C° 0 mm 3 mps 740 mmHg 27%
12:00 +37°C° 0 mm 3 mps 740 mmHg 25%
13:00 +37°C° 0 mm 4 mps 740 mmHg 24%
14:00 +38°C° 0 mm 4 mps 739 mmHg 22%
15:00 +39°C° 0 mm 5 mps 739 mmHg 22%
16:00 +39°C° 0 mm 5 mps 739 mmHg 23%
17:00 +37°C° 0 mm 5 mps 739 mmHg 23%
18:00 +35°C° 0 mm 5 mps 739 mmHg 29%
19:00 +33°C° 0 mm 4 mps 739 mmHg 35%
20:00 +30°C° 0 mm 4 mps 740 mmHg 41%
21:00 +29°C° 0 mm 4 mps 740 mmHg 46%
22:00 +29°C° 0 mm 3 mps 740 mmHg 51%
23:00 +28°C° 0 mm 3 mps 740 mmHg 56%

10 July, Friday

Time Temperature Precipitation Wind Pressure Humidity
00:00 +27°C° 0 mm 3 mps 740 mmHg 60%
01:00 +27°C° 0 mm 2 mps 739 mmHg 63%
02:00 +26°C° 0 mm 2 mps 739 mmHg 67%
03:00 +26°C° 0 mm 2 mps 739 mmHg 69%
04:00 +25°C° 0 mm 2 mps 739 mmHg 72%
05:00 +25°C° 0 mm 2 mps 740 mmHg 75%
06:00 +27°C° 0 mm 2 mps 740 mmHg 69%
07:00 +28°C° 0 mm 2 mps 740 mmHg 63%
08:00 +30°C° 0 mm 2 mps 740 mmHg 57%
09:00 +33°C° 0 mm 3 mps 740 mmHg 50%
10:00 +34°C° 0 mm 3 mps 740 mmHg 43%
11:00 +36°C° 0 mm 3 mps 740 mmHg 35%
12:00 +37°C° 0 mm 3 mps 739 mmHg 31%
13:00 +38°C° 0 mm 3 mps 739 mmHg 27%
14:00 +39°C° 0 mm 3 mps 739 mmHg 22%
15:00 +40°C° 0 mm 4 mps 738 mmHg 21%
16:00 +40°C° 0 mm 5 mps 738 mmHg 20%
17:00 +40°C° 0 mm 6 mps 738 mmHg 18%
18:00 +37°C° 0 mm 5 mps 739 mmHg 22%
19:00 +35°C° 0 mm 5 mps 739 mmHg 26%
20:00 +32°C° 0 mm 4 mps 740 mmHg 30%
21:00 +30°C° 0 mm 4 mps 740 mmHg 38%
22:00 +29°C° 0 mm 3 mps 741 mmHg 46%
23:00 +28°C° 0 mm 3 mps 741 mmHg 55%

11 July, Saturday

Time Temperature Precipitation Wind Pressure Humidity
00:00 +27°C° 0 mm 3 mps 741 mmHg 58%
01:00 +27°C° 0 mm 2 mps 741 mmHg 61%
02:00 +26°C° 0 mm 2 mps 741 mmHg 64%
03:00 +26°C° 0 mm 2 mps 741 mmHg 67%
04:00 +25°C° 0 mm 2 mps 741 mmHg 69%
05:00 +25°C° 0 mm 2 mps 740 mmHg 71%
06:00 +27°C° 0 mm 2 mps 741 mmHg 64%
07:00 +29°C° 0 mm 2 mps 741 mmHg 56%
08:00 +31°C° 0 mm 2 mps 741 mmHg 49%
09:00 +34°C° 0 mm 3 mps 741 mmHg 42%
10:00 +36°C° 0 mm 3 mps 741 mmHg 35%
11:00 +38°C° 0 mm 4 mps 741 mmHg 28%
12:00 +40°C° 0 mm 4 mps 740 mmHg 25%
13:00 +41°C° 0 mm 5 mps 740 mmHg 22%
14:00 +42°C° 0 mm 6 mps 739 mmHg 20%
15:00 +42°C° 0 mm 6 mps 739 mmHg 20%
16:00 +41°C° 0 mm 6 mps 739 mmHg 20%
17:00 +41°C° 0 mm 6 mps 739 mmHg 21%
18:00 +39°C° 0 mm 6 mps 739 mmHg 29%
19:00 +35°C° 0 mm 6 mps 739 mmHg 37%
20:00 +33°C° 0 mm 6 mps 740 mmHg 45%
21:00 +32°C° 0 mm 5 mps 740 mmHg 50%
22:00 +30°C° 0 mm 4 mps 740 mmHg 54%
23:00 +29°C° 0 mm 3 mps 740 mmHg 59%

12 July, Sunday

Time Temperature Precipitation Wind Pressure Humidity
00:00 +28°C° 0 mm 3 mps 740 mmHg 59%
01:00 +28°C° 0 mm 3 mps 740 mmHg 59%
02:00 +27°C° 0 mm 3 mps 740 mmHg 59%
03:00 +26°C° 0 mm 3 mps 740 mmHg 61%
04:00 +26°C° 0 mm 2 mps 739 mmHg 62%
05:00 +25°C° 0 mm 2 mps 739 mmHg 64%
06:00 +27°C° 0 mm 2 mps 740 mmHg 55%
07:00 +30°C° 0 mm 3 mps 740 mmHg 47%
08:00 +33°C° 0 mm 3 mps 740 mmHg 39%
09:00 +35°C° 0 mm 4 mps 740 mmHg 34%
10:00 +36°C° 0 mm 4 mps 740 mmHg 30%
11:00 +39°C° 0 mm 5 mps 740 mmHg 25%
12:00 +40°C° 0 mm 6 mps 739 mmHg 23%
13:00 +41°C° 0 mm 7 mps 739 mmHg 22%
14:00 +43°C° 0 mm 8 mps 738 mmHg 20%
15:00 +43°C° 0 mm 8 mps 738 mmHg 20%
16:00 +43°C° 0 mm 7 mps 738 mmHg 20%
17:00 +41°C° 0 mm 7 mps 738 mmHg 20%
18:00 +39°C° 0 mm 7 mps 738 mmHg 28%
19:00 +35°C° 0 mm 6 mps 739 mmHg 35%
20:00 +33°C° 0 mm 6 mps 739 mmHg 43%
21:00 +32°C° 0 mm 5 mps 739 mmHg 49%
22:00 +29°C° 0 mm 5 mps 739 mmHg 55%
23:00 +28°C° 0 mm 4 mps 739 mmHg 62%
Show more